Moorhead, MN

8:26 PM CDT on May 26, 2017 (GMT -0500)
Moorhead Municipal

Weather History for KJKJ - January, 2013

Change the Weather History Date:

Friday, January 18, 2013

  Actual Average (KFAR) Record (KFAR)
Temperature  
Mean Temperature 20 °F -  
Max Temperature 28 °F 18 °F 48 °F (1908)
Min Temperature 12 °F -3 °F -42 °F (1887)
Degree Days  
Heating Degree Days 45    
Moisture  
Dew Point 21 °F    
Average Humidity 96    
Maximum Humidity 100    
Minimum Humidity 86    
Precipitation  
Precipitation 0.00 in - - ()
Sea Level Pressure  
Sea Level Pressure 29.81 in    
Wind  
Wind Speed 9 mph (South)    
Max Wind Speed 17 mph    
Max Gust Speed 26 mph    
Visibility 9 miles    
Events Snow    
Averages and records for this station are not official NWS values.
T = Trace of Precipitation, MM = Missing Value Source: NWS Daily Summary

Daily Weather History Graph

Daily Weather History Graph

Search for Another Location

Airport or City:

Trip Planner

Search our weather history database for the weather conditions in past years. The results will help you decide how hot, cold, wet, or windy it might be!

Date:

Astronomy

Jan. 18, 2013 Rise Set
Actual Time 8:05 AM CST 5:09 PM CST
Civil Twilight 7:31 AM CST 5:43 PM CST
Nautical Twilight 6:53 AM CST 6:20 PM CST
Astronomical Twilight 6:17 AM CST 6:57 PM CST
Moon 11:12 AM CST (1/18) 12:31 AM CST (1/18)
Length of Visible Light 10h 12m
Length of Day
9h 04m
Waxing Crescent, 47% of the Moon is Illuminated
Jan 18
Waxing Crescent
Jan 18
First Quarter
Jan 26
Full
Feb 3
Last Quarter
Feb 10
New

Hourly Weather History & Observations

Time (CST) Temp. Windchill Dew Point Humidity Pressure Visibility Wind Dir Wind Speed Gust Speed Precip Events Conditions
12:15 AM 12.2 °F -1.0 °F 10.4 °F 92% 30.12 in 2.5 mi SE 10.4 mph - N/A Snow Light Snow
12:35 AM 12.2 °F -2.5 °F 10.4 °F 92% 30.09 in 5.0 mi SE 12.7 mph - N/A Snow Light Snow
12:55 AM 12.2 °F -1.8 °F 12.2 °F 100% 30.09 in 10.0 mi SE 11.5 mph - N/A   Overcast
1:15 AM 14.0 °F 1.2 °F 12.2 °F 93% 30.07 in 10.0 mi SE 10.4 mph - N/A   Overcast
1:34 AM 14.0 °F 2.0 °F 12.2 °F 93% 30.05 in 10.0 mi SE 9.2 mph - N/A   Overcast
1:55 AM 15.8 °F 2.7 °F 12.2 °F 86% 30.01 in 10.0 mi SSE 11.5 mph - N/A   Overcast
2:15 AM 15.8 °F 1.4 °F 14.0 °F 93% 29.98 in 10.0 mi SSE 13.8 mph - N/A   Overcast
2:34 AM 17.6 °F 5.0 °F 15.8 °F 93% 29.98 in 10.0 mi South 11.5 mph - N/A   Overcast
2:55 AM 17.6 °F 2.7 °F 15.8 °F 93% 29.95 in 7.0 mi South 16.1 mph - N/A   Scattered Clouds
3:15 AM 17.6 °F 3.2 °F 15.8 °F 93% 29.95 in 4.0 mi South 15.0 mph 20.7 mph N/A   Clear
3:34 AM 17.6 °F 3.7 °F 15.8 °F 93% 29.94 in 7.0 mi South 13.8 mph 19.6 mph N/A   Scattered Clouds
3:55 AM 19.4 °F 5.0 °F 17.6 °F 93% 29.91 in 5.0 mi South 16.1 mph 21.9 mph N/A   Mostly Cloudy
4:15 AM 19.4 °F 5.5 °F 17.6 °F 93% 29.89 in 3.0 mi South 15.0 mph 26.5 mph N/A   Scattered Clouds
4:35 AM 19.4 °F 4.5 °F 17.6 °F 93% 29.87 in 7.0 mi South 17.3 mph 23.0 mph N/A   Clear
4:55 AM 21.2 °F 7.8 °F 19.4 °F 93% 29.84 in 10.0 mi South 15.0 mph - N/A   Scattered Clouds
5:15 AM 21.2 °F 8.9 °F 19.4 °F 93% 29.85 in 10.0 mi South 12.7 mph 19.6 mph N/A   Clear
5:35 AM 21.2 °F 10.1 °F 19.4 °F 93% 29.84 in 10.0 mi South 10.4 mph 16.1 mph N/A   Clear
5:55 AM 21.2 °F 7.8 °F 19.4 °F 93% 29.82 in 10.0 mi South 15.0 mph - N/A   Clear
6:14 AM 21.2 °F 8.9 °F 21.2 °F 100% 29.81 in 10.0 mi South 12.7 mph 17.3 mph N/A   Clear
6:35 AM 21.2 °F 9.5 °F 21.2 °F 100% 29.80 in 10.0 mi South 11.5 mph - N/A   Scattered Clouds
6:55 AM 23.0 °F 11.7 °F 21.2 °F 93% 29.79 in 10.0 mi South 11.5 mph 18.4 mph N/A   Scattered Clouds
7:14 AM 23.0 °F 11.7 °F 21.2 °F 93% 29.77 in 10.0 mi South 11.5 mph 17.3 mph N/A   Clear
7:35 AM 23.0 °F 11.7 °F 21.2 °F 93% 29.78 in 10.0 mi South 11.5 mph - N/A   Scattered Clouds
7:55 AM 23.0 °F 12.4 °F 21.2 °F 93% 29.78 in 10.0 mi South 10.4 mph 16.1 mph N/A   Scattered Clouds
8:15 AM 23.0 °F 13.1 °F 21.2 °F 93% 29.77 in 10.0 mi South 9.2 mph - N/A   Scattered Clouds
8:35 AM 21.2 °F 11.7 °F 21.2 °F 100% 29.77 in 10.0 mi South 8.1 mph - N/A   Clear
8:54 AM 21.2 °F 11.7 °F 21.2 °F 100% 29.77 in 10.0 mi South 8.1 mph - N/A   Clear
9:15 AM 21.2 °F 11.7 °F 21.2 °F 100% 29.77 in 10.0 mi South 8.1 mph - N/A   Clear
9:35 AM 23.0 °F 13.9 °F 21.2 °F 93% 29.77 in 10.0 mi SSE 8.1 mph - N/A   Clear
9:54 AM 23.0 °F 14.7 °F 21.2 °F 93% 29.76 in 10.0 mi SSE 6.9 mph - N/A   Clear
10:15 AM 24.8 °F 16.1 °F 23.0 °F 93% 29.75 in 1.8 mi South 8.1 mph - N/A   Unknown
10:34 AM 24.8 °F 16.1 °F 23.0 °F 93% 29.77 in 10.0 mi SSW 8.1 mph - N/A   Clear
10:55 AM 24.8 °F 16.1 °F 23.0 °F 93% 29.74 in 10.0 mi South 8.1 mph - N/A   Clear
11:15 AM 24.8 °F 16.1 °F 24.8 °F 100% 29.76 in 10.0 mi SW 8.1 mph - N/A   Clear
11:35 AM 24.8 °F 16.9 °F 24.8 °F 100% 29.76 in 10.0 mi SW 6.9 mph - N/A   Clear
11:55 AM 24.8 °F 16.9 °F 24.8 °F 100% 29.74 in 10.0 mi SSW 6.9 mph - N/A   Clear
12:15 PM 24.8 °F 17.9 °F 24.8 °F 100% 29.73 in 10.0 mi SSW 5.8 mph - N/A   Clear
12:35 PM 26.6 °F 20.0 °F 26.6 °F 100% 29.73 in 10.0 mi WSW 5.8 mph - N/A   Clear
12:55 PM 26.6 °F 18.2 °F 24.8 °F 93% 29.73 in 10.0 mi West 8.1 mph - N/A   Clear
1:14 PM 28.4 °F 19.1 °F 26.6 °F 93% 29.74 in 10.0 mi NW 10.4 mph - N/A   Clear
1:35 PM 28.4 °F 20.4 °F 26.6 °F 93% 29.74 in 10.0 mi NNW 8.1 mph - N/A   Clear
1:55 PM 26.6 °F 22.6 °F 24.8 °F 93% 29.72 in 10.0 mi NNW 3.5 mph - N/A   Clear
2:14 PM 26.6 °F 20.0 °F 24.8 °F 93% 29.73 in 10.0 mi North 5.8 mph - N/A   Clear
2:35 PM 26.6 °F 21.2 °F 24.8 °F 93% 29.74 in 10.0 mi NW 4.6 mph - N/A   Clear
2:55 PM 26.6 °F - 24.8 °F 93% 29.74 in 10.0 mi Calm Calm - N/A   Clear
3:15 PM 26.6 °F 18.2 °F 24.8 °F 93% 29.76 in 10.0 mi NNW 8.1 mph - N/A   Clear
3:35 PM 26.6 °F 16.8 °F 24.8 °F 93% 29.77 in 10.0 mi NW 10.4 mph - N/A   Clear
3:55 PM 24.8 °F 16.1 °F 23.0 °F 93% 29.76 in 10.0 mi NNW 8.1 mph - N/A   Clear
4:15 PM 24.8 °F 17.9 °F 21.2 °F 86% 29.76 in 10.0 mi NW 5.8 mph - N/A   Clear
4:35 PM 23.0 °F 17.0 °F 21.2 °F 93% 29.77 in 7.0 mi WNW 4.6 mph - N/A   Clear
4:55 PM 21.2 °F 13.6 °F 21.2 °F 100% 29.77 in 7.0 mi NW 5.8 mph - N/A   Scattered Clouds
5:15 PM 21.2 °F - 21.2 °F 100% 29.75 in 7.0 mi Calm Calm - N/A   Mostly Cloudy
5:35 PM 21.2 °F - 21.2 °F 100% 29.76 in 10.0 mi Calm Calm - N/A   Mostly Cloudy
5:55 PM 21.2 °F - 21.2 °F 100% 29.75 in 10.0 mi Calm Calm - N/A   Scattered Clouds
6:15 PM 21.2 °F - 21.2 °F 100% 29.76 in 10.0 mi Calm Calm - N/A   Clear
6:35 PM 19.4 °F 14.3 °F 19.4 °F 100% 29.78 in 7.0 mi NNW 3.5 mph - N/A   Scattered Clouds
6:55 PM 21.2 °F 14.9 °F 21.2 °F 100% 29.77 in 10.0 mi NE 4.6 mph - N/A   Scattered Clouds
7:15 PM 21.2 °F - 21.2 °F 100% 29.78 in 10.0 mi Calm Calm - N/A   Mostly Cloudy
7:35 PM 21.2 °F 14.9 °F 21.2 °F 100% 29.78 in 10.0 mi NE 4.6 mph - N/A   Mostly Cloudy
7:55 PM 21.2 °F 14.9 °F 21.2 °F 100% 29.77 in 7.0 mi ENE 4.6 mph - N/A   Overcast
8:15 PM 21.2 °F 14.9 °F 21.2 °F 100% 29.77 in 7.0 mi ENE 4.6 mph - N/A   Overcast
8:35 PM 21.2 °F 14.9 °F 21.2 °F 100% 29.76 in 7.0 mi ENE 4.6 mph - N/A   Overcast
8:55 PM 21.2 °F 14.9 °F 21.2 °F 100% 29.75 in 7.0 mi East 4.6 mph - N/A   Scattered Clouds
9:15 PM 21.2 °F 14.9 °F 21.2 °F 100% 29.74 in 7.0 mi ESE 4.6 mph - N/A   Clear
9:35 PM 21.2 °F - 21.2 °F 100% 29.75 in 10.0 mi Calm Calm - N/A   Clear
9:55 PM 21.2 °F - 21.2 °F 100% 29.75 in 7.0 mi Calm Calm - N/A   Clear
10:15 PM 21.2 °F - 21.2 °F 100% 29.75 in 7.0 mi Calm Calm - N/A   Clear
10:35 PM 21.2 °F 16.4 °F 21.2 °F 100% 29.74 in 7.0 mi East 3.5 mph - N/A   Clear
10:55 PM 21.2 °F 14.9 °F 21.2 °F 100% 29.72 in 7.0 mi SE 4.6 mph - N/A   Clear
11:15 PM 21.2 °F 12.6 °F 21.2 °F 100% 29.71 in 7.0 mi SSE 6.9 mph - N/A   Mostly Cloudy
11:35 PM 21.2 °F 11.7 °F 21.2 °F 100% 29.70 in 7.0 mi SSE 8.1 mph - N/A   Mostly Cloudy
11:55 PM 21.2 °F 11.7 °F 21.2 °F 100% 29.68 in 7.0 mi South 8.1 mph - N/A   Scattered Clouds